WESTFORD NEEDLES, 2359

Orbit data source: Space-Track

WESTFORD NEEDLES, 2359 is space debris in LEO originally from a launch on Thu, 09 May 1963 UTC launched from the Air Force Western Test Range (AFWTR). Debris objects in space refer to the collection of defunct objects orbiting the Earth. Examples of debris include non-operational satellites, rocket bodies, and fragments generated from explosions, collisions, or faulty payload assembly.

Loading next visibility...
Identifier
2359, 1963-014J
Orbit
LEO
Country
Flag of USUS
Related business
Manufacturer
Unknown
Mission
Spacecraft
Bus & Motor
Unknown
Mass
Unknown
Launch date (UTC)
1963-05-09 (63 years ago)
Launch vehicle
Unknown
Launch site
Air Force Western Test Range (AFWTR)
Object type
Payload
Rocket body
Debris
Shape & HBR
Unknown shape, 0.2 m
Radar Cross Section
Medium (>0.1 m² and <1 m²)

Expand to show TLE details & history
Last TLE update: 23 hours ago

TLE from 23 hours ago
0 WESTFORD NEEDLES
1 02359U 63014J   26174.52912166  .00000339  00000-0  61778-1 0  9990
2 02359  86.8763   5.4821 1303913  73.8322 300.1828  8.71946005915292
Epoch: 2026-06-23T12:41Z
TLE epoch observation values (Epoch: 2026-06-23T12:41:56.111Z)
Latitude
0.00006°
Longitude
-96.70107°
Altitude
3,080.358 km
Speed
6.658 km/s
True Right ascension
00h 21m 55s
True Declination
0° 00' 00"
Sunlit
Object was in daylight at epoch
Visualization orbit readout
Latitude
Unknown
Longitude
Unknown
Altitude
Unknown
Speed
Unknown
Apparent Right ascension
Unknown
Apparent Declination
Unknown
Sunlit
N/A
Visualization observer readout
Local Sidereal Time
22:59:38
Azimuth
Unknown
Elevation
Unknown
Doppler factor
Unknown
Orbital elements
Apogee altitude
4,890.551 km
Perigee altitude
2,290.852 km
Semi-major axis
9,968.839 km
Eccentricity
0.13039
Inclination
86.8763°
RAAN
5.4821°
Arg. of periapsis
73.8322°
True anomaly
286.25812°
Mean anomaly
300.1828°
Eccentric anomaly
293.32236°
Mean motion
2.1806 °/min
Orbital period
165.09 mins
BSTAR
0.061778
Loading maneuver chart data...
Computing Atmospheric mass density...

Documentation

Showing up to 5 results
|